Time,TemperatureF,DewpointF,PressureIn,WindDirection,WindDirectionDegrees,WindSpeedMPH,WindSpeedGustMPH,Humidity,HourlyPrecipIn,Conditions,Clouds,dailyrainin,SolarRadiationWatts/m^2,SoftwareType,DateUTC
2013-08-14 00:03:00,64.6,59.3,29.99,NNW,334,1.5,3.5,83,0.00,RA,,0.00,0.0,WeatherDisplay:10.37,2013-08-13 22:03:00,
2013-08-14 00:08:00,64.6,59.7,29.99,North,360,1.5,3.5,84,0.00,RA,,0.00,0.0,WeatherDisplay:10.37,2013-08-13 22:08:00,
2013-08-14 00:13:00,64.6,60.0,29.99,North,360,0.0,1.0,85,0.00,SCT,,0.00,0.0,WeatherDisplay:10.37,2013-08-13 22:13:00,
2013-08-14 00:18:00,64.6,60.0,29.99,North,360,0.0,0.0,85,0.00,SCT,,0.00,0.0,WeatherDisplay:10.37,2013-08-13 22:18:00,
2013-08-14 00:23:00,64.5,59.9,29.99,North,360,0.0,0.0,85,0.01,SCT,,0.00,0.0,WeatherDisplay:10.37,2013-08-13 22:23:00,
2013-08-14 00:28:00,64.6,60.3,30.00,North,360,0.0,1.2,86,0.01,SCT,,0.00,0.0,WeatherDisplay:10.37,2013-08-13 22:28:00,
2013-08-14 00:33:00,64.6,60.3,30.00,North,360,0.0,1.2,86,0.00,SCT,,0.00,0.0,WeatherDisplay:10.37,2013-08-13 22:33:00,
2013-08-14 00:38:00,64.6,60.6,30.00,North,360,0.4,3.5,87,0.00,SCT,,0.00,0.0,WeatherDisplay:10.37,2013-08-13 22:38:00,
2013-08-14 00:43:00,64.6,60.6,30.00,North,360,0.1,1.2,87,0.00,SCT,,0.00,0.0,WeatherDisplay:10.37,2013-08-13 22:43:00,
2013-08-14 00:48:00,64.7,60.7,30.00,North,360,0.0,1.2,87,0.00,SCT,,0.00,0.0,WeatherDisplay:10.37,2013-08-13 22:48:00,
2013-08-14 00:53:00,64.7,61.1,30.00,North,360,0.0,1.2,88,0.00,SCT,,0.00,0.0,WeatherDisplay:10.37,2013-08-13 22:53:00,
2013-08-14 00:58:00,64.7,61.1,29.99,North,360,0.0,0.0,88,0.00,SCT,,0.00,0.0,WeatherDisplay:10.37,2013-08-13 22:58:00,
2013-08-14 01:03:00,64.7,61.1,30.00,North,360,0.0,0.0,88,0.00,SCT,,0.00,0.0,WeatherDisplay:10.37,2013-08-13 23:03:00,
2013-08-14 01:08:00,64.7,61.1,29.99,North,360,0.0,0.0,88,0.00,SCT,,0.00,0.0,WeatherDisplay:10.37,2013-08-13 23:08:00,
2013-08-14 01:13:00,64.7,61.1,29.99,North,360,0.0,3.5,88,0.00,SCT,,0.00,0.0,WeatherDisplay:10.37,2013-08-13 23:13:00,
2013-08-14 01:18:00,64.7,61.4,29.99,North,360,0.2,1.2,89,0.00,SCT,,0.00,0.0,WeatherDisplay:10.37,2013-08-13 23:18:00,
2013-08-14 01:23:00,64.6,61.3,29.99,North,360,0.0,2.3,89,0.00,SCT,,0.00,0.0,WeatherDisplay:10.37,2013-08-13 23:23:00,
2013-08-14 01:28:00,64.6,61.3,29.99,North,360,0.1,2.3,89,0.00,SCT,,0.00,0.0,WeatherDisplay:10.37,2013-08-13 23:28:00,
2013-08-14 01:33:00,64.6,61.3,29.99,North,360,0.0,0.0,89,0.00,SCT,,0.00,0.0,WeatherDisplay:10.37,2013-08-13 23:33:00,
2013-08-14 01:38:00,64.6,61.3,29.99,North,360,0.1,1.2,89,0.00,SCT,,0.00,0.0,WeatherDisplay:10.37,2013-08-13 23:38:00,
2013-08-14 01:43:00,64.6,61.3,29.99,North,360,0.7,2.3,89,0.00,SCT,,0.00,0.0,WeatherDisplay:10.37,2013-08-13 23:43:00,
2013-08-14 01:48:00,64.6,61.3,29.98,North,360,0.5,2.3,89,0.00,SCT,,0.00,0.0,WeatherDisplay:10.37,2013-08-13 23:48:00,
2013-08-14 01:53:00,64.6,61.3,29.98,North,360,0.2,3.5,89,0.00,SCT,,0.00,0.0,WeatherDisplay:10.37,2013-08-13 23:53:00,
2013-08-14 01:58:00,64.6,61.3,29.98,North,360,0.1,2.3,89,0.00,SCT,,0.00,0.0,WeatherDisplay:10.37,2013-08-13 23:58:00,
2013-08-14 02:03:00,64.6,61.3,29.99,North,360,0.0,0.0,89,0.00,SCT,,0.00,0.0,WeatherDisplay:10.37,2013-08-14 00:03:00,
2013-08-14 02:08:00,64.5,61.5,29.98,North,360,0.1,1.0,90,0.00,SCT,,0.00,0.0,WeatherDisplay:10.37,2013-08-14 00:08:00,
2013-08-14 02:13:00,64.5,61.5,29.98,North,360,0.0,0.0,90,0.00,SCT,,0.00,0.0,WeatherDisplay:10.37,2013-08-14 00:13:00,
2013-08-14 02:18:00,64.5,61.5,29.98,North,360,0.0,0.0,90,0.00,SCT,,0.00,0.0,WeatherDisplay:10.37,2013-08-14 00:18:00,
2013-08-14 02:23:00,64.5,61.5,29.98,North,360,0.0,0.0,90,0.00,SCT,,0.00,0.0,WeatherDisplay:10.37,2013-08-14 00:23:00,
2013-08-14 02:28:00,64.4,61.4,29.98,North,360,0.0,0.0,90,0.00,SCT,,0.00,0.0,WeatherDisplay:10.37,2013-08-14 00:28:00,
2013-08-14 02:33:00,64.4,61.4,29.99,North,360,0.0,0.0,90,0.00,SCT,,0.00,0.0,WeatherDisplay:10.37,2013-08-14 00:33:00,
2013-08-14 02:38:00,64.4,61.4,29.98,North,360,0.0,0.0,90,0.00,SCT,,0.00,0.0,WeatherDisplay:10.37,2013-08-14 00:38:00,
2013-08-14 02:40:00,64.4,61.4,29.99,North,360,0.0,0.0,90,0.00,SCT,,0.00,0.0,WeatherDisplay:10.37,2013-08-14 00:40:00,
2013-08-14 02:45:00,64.4,61.4,29.99,North,360,0.0,0.0,90,0.00,SCT,,0.00,0.0,WeatherDisplay:10.37,2013-08-14 00:45:00,
2013-08-14 02:50:00,64.3,61.3,29.99,North,360,0.0,0.0,90,0.00,SCT,,0.00,0.0,WeatherDisplay:10.37,2013-08-14 00:50:00,
2013-08-14 02:55:00,64.3,61.3,29.99,North,360,0.0,0.0,90,0.00,SCT,,0.00,0.0,WeatherDisplay:10.37,2013-08-14 00:55:00,
2013-08-14 03:00:00,64.3,61.3,30.00,North,360,0.0,0.0,90,0.00,SCT,,0.00,0.0,WeatherDisplay:10.37,2013-08-14 01:00:00,
2013-08-14 03:05:00,64.2,61.2,30.00,North,360,0.1,1.0,90,0.00,SCT,,0.00,0.0,WeatherDisplay:10.37,2013-08-14 01:05:00,
2013-08-14 03:10:00,64.2,61.2,30.00,North,360,0.0,0.0,90,0.00,SCT,,0.00,0.0,WeatherDisplay:10.37,2013-08-14 01:10:00,
2013-08-14 03:15:00,64.2,61.2,30.00,North,360,0.0,0.0,90,0.00,SCT,,0.00,0.0,WeatherDisplay:10.37,2013-08-14 01:15:00,
2013-08-14 03:20:00,64.1,61.1,30.00,North,360,0.2,1.0,90,0.00,SCT,,0.00,0.0,WeatherDisplay:10.37,2013-08-14 01:20:00,
2013-08-14 03:25:00,64.1,61.1,30.00,North,360,0.0,1.2,90,0.00,SCT,,0.00,0.0,WeatherDisplay:10.37,2013-08-14 01:25:00,
2013-08-14 03:30:00,64.1,61.1,30.00,North,360,0.0,0.0,90,0.00,SCT,,0.00,0.0,WeatherDisplay:10.37,2013-08-14 01:30:00,
2013-08-14 03:35:00,64.1,61.1,30.01,North,360,0.0,0.0,90,0.00,SCT,,0.00,0.0,WeatherDisplay:10.37,2013-08-14 01:35:00,
2013-08-14 03:40:00,64.0,61.0,30.01,North,360,0.0,1.2,90,0.00,SCT,,0.00,0.0,WeatherDisplay:10.37,2013-08-14 01:40:00,
2013-08-14 03:45:00,64.0,61.0,30.01,North,360,0.0,0.0,90,0.00,SCT,,0.00,0.0,WeatherDisplay:10.37,2013-08-14 01:45:00,
2013-08-14 03:50:00,63.9,60.9,30.01,North,360,0.0,0.0,90,0.00,SCT,,0.00,0.0,WeatherDisplay:10.37,2013-08-14 01:50:00,
2013-08-14 03:55:00,63.9,60.9,30.01,North,360,0.0,0.0,90,0.00,SCT,,0.00,0.0,WeatherDisplay:10.37,2013-08-14 01:55:00,
2013-08-14 04:00:00,63.8,61.1,30.01,North,360,0.0,0.0,91,0.00,SCT,,0.00,0.0,WeatherDisplay:10.37,2013-08-14 02:00:00,
2013-08-14 04:05:00,63.7,61.0,30.01,North,360,0.0,0.0,91,0.00,SCT,,0.00,0.0,WeatherDisplay:10.37,2013-08-14 02:05:00,
2013-08-14 04:10:00,63.7,61.0,30.01,North,360,0.0,0.0,91,0.00,SCT,,0.00,0.0,WeatherDisplay:10.37,2013-08-14 02:10:00,
2013-08-14 04:15:00,63.7,61.0,30.01,North,360,0.0,0.0,91,0.00,SCT,,0.00,0.0,WeatherDisplay:10.37,2013-08-14 02:15:00,
2013-08-14 04:20:00,63.6,60.9,30.01,North,360,0.0,0.0,91,0.00,SCT,,0.00,0.0,WeatherDisplay:10.37,2013-08-14 02:20:00,
2013-08-14 04:25:00,63.6,60.9,30.02,North,360,0.0,0.0,91,0.00,SCT,,0.00,0.0,WeatherDisplay:10.37,2013-08-14 02:25:00,
2013-08-14 04:30:00,63.5,60.8,30.02,North,360,0.0,0.0,91,0.00,SCT,,0.00,0.0,WeatherDisplay:10.37,2013-08-14 02:30:00,
2013-08-14 04:35:00,63.5,60.8,30.02,North,360,0.0,0.0,91,0.00,SCT,,0.00,0.0,WeatherDisplay:10.37,2013-08-14 02:35:00,
2013-08-14 04:40:00,63.4,60.7,30.02,North,360,0.0,0.0,91,0.00,SCT,,0.00,0.0,WeatherDisplay:10.37,2013-08-14 02:40:00,
2013-08-14 04:45:00,63.4,60.7,30.02,North,360,0.0,0.0,91,0.00,SCT,,0.00,0.0,WeatherDisplay:10.37,2013-08-14 02:45:00,
2013-08-14 04:50:00,63.3,60.6,30.02,North,360,0.0,0.0,91,0.00,SCT,,0.00,0.0,WeatherDisplay:10.37,2013-08-14 02:50:00,
2013-08-14 04:55:00,63.3,60.6,30.02,North,360,0.0,0.0,91,0.00,SCT,,0.00,0.0,WeatherDisplay:10.37,2013-08-14 02:55:00,
2013-08-14 05:00:00,63.3,60.6,30.02,North,360,0.0,0.0,91,0.00,SCT,,0.00,0.0,WeatherDisplay:10.37,2013-08-14 03:00:00,
2013-08-14 05:05:00,63.3,60.6,30.02,North,360,0.0,0.0,91,0.00,SCT,,0.00,0.0,WeatherDisplay:10.37,2013-08-14 03:05:00,
2013-08-14 05:10:00,63.2,60.5,30.02,North,360,0.0,0.0,91,0.00,SCT,,0.00,0.0,WeatherDisplay:10.37,2013-08-14 03:10:00,
2013-08-14 05:15:00,63.2,60.5,30.02,North,360,0.0,0.0,91,0.00,SCT,,0.00,0.0,WeatherDisplay:10.37,2013-08-14 03:15:00,
2013-08-14 05:20:00,63.2,60.8,30.02,North,360,0.0,0.0,92,0.00,SCT,,0.00,0.0,WeatherDisplay:10.37,2013-08-14 03:20:00,
2013-08-14 05:25:00,63.2,60.8,30.02,North,360,0.0,0.0,92,0.00,SCT,,0.00,0.0,WeatherDisplay:10.37,2013-08-14 03:25:00,
2013-08-14 05:30:00,63.1,60.7,30.02,North,360,0.0,0.0,92,0.00,SCT,,0.00,0.0,WeatherDisplay:10.37,2013-08-14 03:30:00,
2013-08-14 05:35:00,63.0,60.3,30.03,North,360,0.0,0.0,91,0.00,SCT,,0.00,0.0,WeatherDisplay:10.37,2013-08-14 03:35:00,
2013-08-14 05:41:00,62.9,60.2,30.03,North,360,0.0,0.0,91,0.00,SCT,,0.00,0.0,WeatherDisplay:10.37,2013-08-14 03:41:00,
2013-08-14 05:46:00,62.8,60.1,30.03,North,360,0.2,1.0,91,0.00,SCT,,0.00,0.0,WeatherDisplay:10.37,2013-08-14 03:46:00,
2013-08-14 05:51:00,62.7,60.0,30.03,North,360,0.0,0.0,91,0.00,SCT,,0.00,0.0,WeatherDisplay:10.37,2013-08-14 03:51:00,
2013-08-14 05:56:00,62.7,60.0,30.02,North,360,0.0,1.2,91,0.00,SCT,,0.00,0.0,WeatherDisplay:10.37,2013-08-14 03:56:00,
2013-08-14 06:01:00,62.6,59.9,30.02,North,360,0.0,0.0,91,0.00,SCT,,0.00,5.0,WeatherDisplay:10.37,2013-08-14 04:01:00,
2013-08-14 06:02:00,62.6,59.9,30.02,North,360,0.0,0.0,91,0.00,SCT,,0.00,5.0,WeatherDisplay:10.37,2013-08-14 04:02:00,
2013-08-14 06:03:00,62.6,59.9,30.02,North,360,0.0,0.0,91,0.00,SCT,,0.00,5.0,WeatherDisplay:10.37,2013-08-14 04:03:00,
2013-08-14 06:06:00,62.6,59.9,30.03,North,360,0.0,0.0,91,0.00,SCT,,0.00,7.0,WeatherDisplay:10.37,2013-08-14 04:06:00,
2013-08-14 06:07:00,62.6,59.9,30.03,North,360,0.0,1.0,91,0.00,SCT,,0.00,7.0,WeatherDisplay:10.37,2013-08-14 04:07:00,
2013-08-14 06:12:00,62.5,59.8,30.03,North,360,0.0,0.0,91,0.00,SCT,,0.00,9.0,WeatherDisplay:10.37,2013-08-14 04:12:00,
2013-08-14 06:17:00,62.5,59.8,30.03,North,360,0.0,1.2,91,0.00,SCT,,0.00,12.0,WeatherDisplay:10.37,2013-08-14 04:17:00,
2013-08-14 06:22:00,62.5,59.8,30.03,North,360,0.1,3.5,91,0.00,SCT,,0.00,18.0,WeatherDisplay:10.37,2013-08-14 04:22:00,
2013-08-14 06:27:00,62.5,59.8,30.03,North,360,0.0,1.2,91,0.00,SCT,,0.00,18.0,WeatherDisplay:10.37,2013-08-14 04:27:00,
2013-08-14 06:32:00,62.5,59.8,30.03,North,360,0.0,0.0,91,0.00,SCT,,0.00,16.0,WeatherDisplay:10.37,2013-08-14 04:32:00,
2013-08-14 06:37:00,62.5,59.8,30.03,North,360,0.0,0.0,91,0.00,BKN,,0.00,18.0,WeatherDisplay:10.37,2013-08-14 04:37:00,
2013-08-14 06:42:00,62.5,59.5,30.04,North,360,0.0,0.0,90,0.00,BKN,,0.00,19.0,WeatherDisplay:10.37,2013-08-14 04:42:00,
2013-08-14 06:47:00,62.5,59.5,30.04,North,360,0.0,0.0,90,0.00,BKN,,0.00,19.0,WeatherDisplay:10.37,2013-08-14 04:47:00,
2013-08-14 06:52:00,62.5,59.5,30.04,North,360,0.0,0.0,90,0.00,BKN,,0.00,26.0,WeatherDisplay:10.37,2013-08-14 04:52:00,
2013-08-14 06:57:00,62.6,59.6,30.04,North,360,0.0,0.0,90,0.00,BKN,,0.00,26.0,WeatherDisplay:10.37,2013-08-14 04:57:00,
2013-08-14 07:02:00,62.6,59.6,30.04,North,360,0.0,0.0,90,0.00,BKN,,0.00,28.0,WeatherDisplay:10.37,2013-08-14 05:02:00,
2013-08-14 07:07:00,62.6,59.9,30.04,North,360,0.0,0.0,91,0.00,BKN,,0.00,33.0,WeatherDisplay:10.37,2013-08-14 05:07:00,
2013-08-14 07:12:00,62.6,59.6,30.04,North,360,0.0,0.0,90,0.00,BKN,,0.00,42.0,WeatherDisplay:10.37,2013-08-14 05:12:00,
2013-08-14 07:17:00,62.6,59.6,30.04,North,360,0.0,0.0,90,0.00,BKN,,0.00,47.0,WeatherDisplay:10.37,2013-08-14 05:17:00,
2013-08-14 07:22:00,62.6,59.6,30.04,North,360,0.0,0.0,90,0.00,BKN,,0.00,44.0,WeatherDisplay:10.37,2013-08-14 05:22:00,
2013-08-14 07:27:00,62.7,59.7,30.04,North,360,0.2,1.2,90,0.00,BKN,,0.00,44.0,WeatherDisplay:10.37,2013-08-14 05:27:00,
2013-08-14 07:32:00,62.8,59.8,30.04,North,360,0.0,1.2,90,0.00,BKN,,0.00,40.0,WeatherDisplay:10.37,2013-08-14 05:32:00,
2013-08-14 07:37:00,62.8,59.5,30.05,North,360,0.0,0.0,89,0.00,BKN,,0.00,47.0,WeatherDisplay:10.37,2013-08-14 05:37:00,
2013-08-14 07:42:00,62.9,59.6,30.05,North,360,0.0,2.3,89,0.00,BKN,,0.00,46.0,WeatherDisplay:10.37,2013-08-14 05:42:00,
2013-08-14 07:47:00,62.9,59.3,30.05,North,360,0.1,1.0,88,0.00,BKN,,0.00,42.0,WeatherDisplay:10.37,2013-08-14 05:47:00,
2013-08-14 07:52:00,63.0,59.4,30.06,North,360,0.0,0.0,88,0.00,BKN,,0.00,54.0,WeatherDisplay:10.37,2013-08-14 05:52:00,
2013-08-14 07:57:00,63.1,59.2,30.06,North,360,0.0,0.0,87,0.00,BKN,,0.00,63.0,WeatherDisplay:10.37,2013-08-14 05:57:00,
2013-08-14 08:02:00,63.2,59.3,30.06,North,360,0.0,0.0,87,0.00,BKN,,0.00,83.0,WeatherDisplay:10.37,2013-08-14 06:02:00,
2013-08-14 08:07:00,63.3,59.0,30.06,North,360,0.0,3.5,86,0.00,BKN,,0.00,81.0,WeatherDisplay:10.37,2013-08-14 06:07:00,
2013-08-14 08:12:00,63.4,59.1,30.06,North,360,0.0,1.2,86,0.00,BKN,,0.00,69.0,WeatherDisplay:10.37,2013-08-14 06:12:00,
2013-08-14 08:17:00,63.6,59.3,30.06,SSW,198,0.0,0.0,86,0.00,BKN,,0.00,65.0,WeatherDisplay:10.37,2013-08-14 06:17:00,
2013-08-14 08:22:00,63.7,59.1,30.06,NW,323,0.9,3.0,85,0.00,BKN,,0.00,69.0,WeatherDisplay:10.37,2013-08-14 06:22:00,
2013-08-14 08:27:00,63.8,59.2,30.05,NW,323,0.0,0.0,85,0.00,BKN,,0.00,86.0,WeatherDisplay:10.37,2013-08-14 06:27:00,
2013-08-14 10:49:00,68.6,55.1,30.07,NW,309,0.2,7.0,62,0.00,BKN,,0.00,211.0,WeatherDisplay:10.37,2013-08-14 08:49:00,
2013-08-14 10:54:00,68.7,55.2,30.07,NW,312,0.6,4.6,62,0.00,BKN,,0.00,232.0,WeatherDisplay:10.37,2013-08-14 08:54:00,
2013-08-14 11:00:00,68.7,55.2,30.07,NNW,333,1.5,3.5,62,0.00,BKN,,0.00,239.0,WeatherDisplay:10.37,2013-08-14 09:00:00,
2013-08-14 11:05:00,68.8,54.8,30.07,NNW,328,0.8,3.5,61,0.00,BKN,,0.00,239.0,WeatherDisplay:10.37,2013-08-14 09:05:00,
2013-08-14 11:09:00,68.9,54.4,30.07,NW,319,2.0,4.0,60,0.00,BKN,,0.00,213.0,WeatherDisplay:10.37,2013-08-14 09:09:00,
2013-08-14 11:15:00,69.0,53.6,30.07,NNW,343,1.5,4.6,58,0.00,BKN,,0.00,239.0,WeatherDisplay:10.37,2013-08-14 09:15:00,
2013-08-14 11:20:00,69.2,53.8,30.08,NNW,342,1.0,7.0,58,0.00,BKN,,0.00,218.0,WeatherDisplay:10.37,2013-08-14 09:20:00,
2013-08-14 11:26:00,69.3,53.4,30.08,NNW,337,0.8,4.6,57,0.00,BKN,,0.00,207.0,WeatherDisplay:10.37,2013-08-14 09:26:00,
2013-08-14 11:31:00,69.4,54.4,30.08,NNW,340,0.1,1.0,59,0.00,BKN,,0.00,202.0,WeatherDisplay:10.37,2013-08-14 09:31:00,
2013-08-14 11:36:00,69.5,54.1,30.08,WNW,297,2.0,3.0,58,0.00,BKN,,0.00,183.0,WeatherDisplay:10.37,2013-08-14 09:36:00,
2013-08-14 11:41:00,69.5,53.6,30.08,NNW,339,1.0,3.5,57,0.00,BKN,,0.00,213.0,WeatherDisplay:10.37,2013-08-14 09:41:00,
2013-08-14 11:47:00,69.6,53.7,30.08,NNW,335,1.1,4.6,57,0.00,BKN,,0.00,200.0,WeatherDisplay:10.37,2013-08-14 09:47:00,
2013-08-14 11:53:00,69.5,53.1,30.08,NNE,18,2.6,5.0,56,0.00,BKN,,0.00,229.0,WeatherDisplay:10.37,2013-08-14 09:53:00,
2013-08-14 11:58:00,69.6,53.7,30.08,WNW,287,0.6,3.5,57,0.00,BKN,,0.00,255.0,WeatherDisplay:10.37,2013-08-14 09:58:00,
2013-08-14 12:03:00,69.6,53.7,30.08,WNW,291,1.6,4.6,57,0.00,BKN,,0.00,223.0,WeatherDisplay:10.37,2013-08-14 10:03:00,
2013-08-14 12:08:00,69.7,53.3,30.07,WNW,299,3.0,6.9,56,0.00,BKN,,0.00,234.0,WeatherDisplay:10.37,2013-08-14 10:08:00,
2013-08-14 12:13:00,69.8,52.4,30.07,NW,323,2.1,5.0,54,0.00,BKN,,0.00,308.0,WeatherDisplay:10.37,2013-08-14 10:13:00,
2013-08-14 12:19:00,69.9,52.5,30.08,NNW,337,3.0,6.9,54,0.00,BKN,,0.00,343.0,WeatherDisplay:10.37,2013-08-14 10:19:00,
2013-08-14 12:24:00,70.1,52.2,30.07,NNE,17,3.8,8.0,53,0.00,BKN,,0.00,369.0,WeatherDisplay:10.37,2013-08-14 10:24:00,
2013-08-14 12:29:00,70.3,51.8,30.08,NNW,333,2.9,5.8,52,0.00,SCT,,0.00,431.0,WeatherDisplay:10.37,2013-08-14 10:29:00,
2013-08-14 12:34:00,70.8,52.3,30.08,NW,317,2.0,3.5,52,0.00,SCT,,0.00,777.0,WeatherDisplay:10.37,2013-08-14 10:34:00,
2013-08-14 12:39:00,71.6,55.1,30.08,NNW,340,0.0,2.3,56,0.00,SCT,,0.00,515.0,WeatherDisplay:10.37,2013-08-14 10:39:00,
2013-08-14 12:44:00,72.1,51.3,30.08,NW,306,2.1,4.0,48,0.00,SCT,,0.00,461.0,WeatherDisplay:10.37,2013-08-14 10:44:00,
2013-08-14 12:49:00,72.0,51.2,30.08,NW,314,3.5,8.1,48,0.00,SCT,,0.00,524.0,WeatherDisplay:10.37,2013-08-14 10:49:00,
2013-08-14 12:54:00,72.0,51.2,30.08,North,360,5.1,9.0,48,0.00,SCT,,0.00,747.0,WeatherDisplay:10.37,2013-08-14 10:54:00,
2013-08-14 12:59:00,72.2,50.3,30.08,North,9,4.9,8.1,46,0.00,FEW,,0.00,445.0,WeatherDisplay:10.37,2013-08-14 10:59:00,
2013-08-14 13:04:00,72.2,50.8,30.08,North,355,3.1,5.8,47,0.00,SCT,,0.00,431.0,WeatherDisplay:10.37,2013-08-14 11:04:00,
2013-08-14 13:09:00,72.3,52.1,30.08,NW,325,4.3,6.0,49,0.00,SCT,,0.00,392.0,WeatherDisplay:10.37,2013-08-14 11:09:00,
2013-08-14 13:14:00,72.4,52.2,30.08,NNW,336,3.2,7.0,49,0.00,SCT,,0.00,497.0,WeatherDisplay:10.37,2013-08-14 11:14:00,
2013-08-14 13:19:00,72.4,50.4,30.08,NW,317,4.3,6.0,46,0.00,SCT,,0.00,441.0,WeatherDisplay:10.37,2013-08-14 11:19:00,
2013-08-14 13:24:00,72.4,51.0,30.08,NW,308,1.1,3.5,47,0.00,SCT,,0.00,345.0,WeatherDisplay:10.37,2013-08-14 11:24:00,
2013-08-14 13:29:00,72.4,50.4,30.08,North,355,2.6,8.1,46,0.00,SCT,,0.00,313.0,WeatherDisplay:10.37,2013-08-14 11:29:00,
2013-08-14 13:34:00,72.4,51.0,30.08,NNW,332,3.3,8.1,47,0.00,BKN,,0.00,322.0,WeatherDisplay:10.37,2013-08-14 11:34:00,
2013-08-14 13:39:00,72.4,51.0,30.08,NW,304,4.1,9.0,47,0.00,BKN,,0.00,329.0,WeatherDisplay:10.37,2013-08-14 11:39:00,
2013-08-14 13:44:00,72.3,50.9,30.08,NNW,338,3.6,8.1,47,0.00,BKN,,0.00,339.0,WeatherDisplay:10.37,2013-08-14 11:44:00,
2013-08-14 13:49:00,72.3,51.5,30.08,WNW,300,3.8,6.0,48,0.00,BKN,,0.00,352.0,WeatherDisplay:10.37,2013-08-14 11:49:00,
2013-08-14 13:54:00,72.5,51.7,30.08,NW,313,3.2,5.0,48,0.00,SCT,,0.00,482.0,WeatherDisplay:10.37,2013-08-14 11:54:00,
2013-08-14 13:59:00,72.7,51.9,30.08,WNW,296,1.6,8.1,48,0.00,SCT,,0.00,504.0,WeatherDisplay:10.37,2013-08-14 11:59:00,
2013-08-14 14:04:00,73.1,51.1,30.07,NW,324,4.0,6.0,46,0.00,SCT,,0.00,548.0,WeatherDisplay:10.37,2013-08-14 12:04:00,
2013-08-14 14:09:00,73.7,51.0,30.08,NNW,342,1.3,9.2,45,0.00,SCT,,0.00,496.0,WeatherDisplay:10.37,2013-08-14 12:09:00,
2013-08-14 14:14:00,73.7,50.4,30.08,NW,306,6.6,12.7,44,0.00,SCT,,0.00,557.0,WeatherDisplay:10.37,2013-08-14 12:14:00,
2013-08-14 14:19:00,73.8,51.1,30.08,NW,313,4.1,9.0,45,0.00,FEW,,0.00,501.0,WeatherDisplay:10.37,2013-08-14 12:19:00,
2013-08-14 14:24:00,74.0,50.1,30.08,WNW,289,6.6,12.0,43,0.00,FEW,,0.00,599.0,WeatherDisplay:10.37,2013-08-14 12:24:00,
2013-08-14 14:30:00,74.0,49.4,30.08,WSW,241,6.1,11.0,42,0.00,FEW,,0.00,364.0,WeatherDisplay:10.37,2013-08-14 12:30:00,
2013-08-14 14:35:00,74.0,50.1,30.08,NW,308,6.0,9.0,43,0.00,SCT,,0.00,316.0,WeatherDisplay:10.37,2013-08-14 12:35:00,
2013-08-14 14:40:00,73.7,48.5,30.08,NW,321,7.0,13.0,41,0.00,SCT,,0.00,612.0,WeatherDisplay:10.37,2013-08-14 12:40:00,
2013-08-14 14:45:00,73.8,49.3,30.08,NNW,342,3.3,8.1,42,0.00,SCT,,0.00,464.0,WeatherDisplay:10.37,2013-08-14 12:45:00,
2013-08-14 14:50:00,74.0,48.8,30.08,West,277,4.2,10.4,41,0.00,SCT,,0.00,468.0,WeatherDisplay:10.37,2013-08-14 12:50:00,
2013-08-14 14:55:00,74.0,48.8,30.07,West,262,5.4,9.0,41,0.00,SCT,,0.00,348.0,WeatherDisplay:10.37,2013-08-14 12:55:00,
2013-08-14 15:00:00,73.8,48.6,30.07,NW,317,4.9,9.2,41,0.00,SCT,,0.00,292.0,WeatherDisplay:10.37,2013-08-14 13:00:00,
2013-08-14 15:05:00,73.6,48.4,30.07,North,360,4.7,9.2,41,0.00,SCT,,0.00,313.0,WeatherDisplay:10.37,2013-08-14 13:05:00,
2013-08-14 15:10:00,73.5,48.4,30.07,WNW,298,5.3,11.5,41,0.00,SCT,,0.00,323.0,WeatherDisplay:10.37,2013-08-14 13:10:00,
2013-08-14 15:15:00,73.4,48.3,30.07,NNW,335,4.4,7.0,41,0.00,SCT,,0.00,299.0,WeatherDisplay:10.37,2013-08-14 13:15:00,
2013-08-14 15:20:00,73.4,48.9,30.07,NNW,348,2.5,6.9,42,0.00,SCT,,0.00,294.0,WeatherDisplay:10.37,2013-08-14 13:20:00,
2013-08-14 15:25:00,73.5,48.4,30.07,NW,304,4.3,11.5,41,0.00,SCT,,0.00,323.0,WeatherDisplay:10.37,2013-08-14 13:25:00,
2013-08-14 15:30:00,73.5,48.4,30.07,NW,319,6.2,13.8,41,0.00,SCT,,0.00,490.0,WeatherDisplay:10.37,2013-08-14 13:30:00,
2013-08-14 15:35:00,73.6,48.4,30.07,NW,315,3.6,10.4,41,0.00,SCT,,0.00,501.0,WeatherDisplay:10.37,2013-08-14 13:35:00,
2013-08-14 15:40:00,73.9,49.4,30.07,NNW,329,4.5,10.4,42,0.00,FEW,,0.00,664.0,WeatherDisplay:10.37,2013-08-14 13:40:00,
2013-08-14 15:45:00,74.3,49.1,30.07,North,355,4.4,9.0,41,0.00,CLR,,0.00,492.0,WeatherDisplay:10.37,2013-08-14 13:45:00,
2013-08-14 15:50:00,74.4,49.8,30.07,NW,324,5.3,9.0,42,0.00,CLR,,0.00,350.0,WeatherDisplay:10.37,2013-08-14 13:50:00,
2013-08-14 15:55:00,74.2,49.6,30.08,WNW,295,3.4,6.0,42,0.00,FEW,,0.00,394.0,WeatherDisplay:10.37,2013-08-14 13:55:00,
2013-08-14 16:00:00,74.2,49.6,30.08,WNW,303,2.7,7.0,42,0.00,FEW,,0.00,318.0,WeatherDisplay:10.37,2013-08-14 14:00:00,
2013-08-14 16:05:00,74.2,49.0,30.07,West,270,4.9,9.2,41,0.00,SCT,,0.00,255.0,WeatherDisplay:10.37,2013-08-14 14:05:00,
2013-08-14 16:10:00,74.0,48.8,30.08,West,279,2.5,9.0,41,0.00,SCT,,0.00,218.0,WeatherDisplay:10.37,2013-08-14 14:10:00,
2013-08-14 16:15:00,73.7,47.9,30.07,North,355,6.2,11.5,40,0.00,BKN,,0.00,213.0,WeatherDisplay:10.37,2013-08-14 14:15:00,
2013-08-14 16:20:00,73.5,48.4,30.07,WNW,301,5.9,10.0,41,0.00,BKN,,0.00,156.0,WeatherDisplay:10.37,2013-08-14 14:20:00,
2013-08-14 16:25:00,73.2,48.1,30.07,NW,313,2.8,9.2,41,0.00,BKN,,0.00,153.0,WeatherDisplay:10.37,2013-08-14 14:25:00,
2013-08-14 16:30:00,73.1,48.6,30.07,NW,316,1.5,9.2,42,0.00,BKN,,0.00,204.0,WeatherDisplay:10.37,2013-08-14 14:30:00,
2013-08-14 16:36:00,73.0,47.9,30.07,NNW,328,2.2,5.8,41,0.00,BKN,,0.00,220.0,WeatherDisplay:10.37,2013-08-14 14:36:00,
2013-08-14 16:41:00,73.0,47.9,30.07,WNW,294,2.9,8.1,41,0.00,SCT,,0.00,167.0,WeatherDisplay:10.37,2013-08-14 14:41:00,
2013-08-14 16:46:00,73.0,47.9,30.07,NW,326,3.6,6.9,41,0.00,BKN,,0.00,137.0,WeatherDisplay:10.37,2013-08-14 14:46:00,
2013-08-14 16:51:00,73.0,47.9,30.06,NNW,333,2.2,5.0,41,0.00,BKN,,0.00,137.0,WeatherDisplay:10.37,2013-08-14 14:51:00,
2013-08-14 16:56:00,72.9,48.5,30.06,NW,307,3.2,5.0,42,0.00,BKN,,0.00,134.0,WeatherDisplay:10.37,2013-08-14 14:56:00,
2013-08-14 17:01:00,72.8,47.7,30.06,NW,323,2.8,5.0,41,0.00,BKN,,0.00,134.0,WeatherDisplay:10.37,2013-08-14 15:01:00,
2013-08-14 17:06:00,72.7,47.6,30.07,North,9,2.5,4.6,41,0.00,BKN,,0.00,128.0,WeatherDisplay:10.37,2013-08-14 15:06:00,
2013-08-14 17:11:00,72.7,47.6,30.07,NW,313,3.8,7.0,41,0.00,BKN,,0.00,148.0,WeatherDisplay:10.37,2013-08-14 15:11:00,
2013-08-14 17:16:00,72.6,47.5,30.07,NW,324,4.3,8.0,41,0.00,BKN,,0.00,135.0,WeatherDisplay:10.37,2013-08-14 15:16:00,
2013-08-14 17:21:00,72.6,48.2,30.07,NNW,342,0.9,4.6,42,0.00,BKN,,0.00,98.0,WeatherDisplay:10.37,2013-08-14 15:21:00,
2013-08-14 17:26:00,72.6,48.2,30.07,NNW,334,4.1,8.1,42,0.00,BKN,,0.00,91.0,WeatherDisplay:10.37,2013-08-14 15:26:00,
2013-08-14 17:31:00,72.5,48.1,30.07,North,360,5.5,8.0,42,0.00,BKN,,0.00,102.0,WeatherDisplay:10.37,2013-08-14 15:31:00,
2013-08-14 17:36:00,72.4,48.0,30.07,WNW,293,3.6,8.0,42,0.00,BKN,,0.00,98.0,WeatherDisplay:10.37,2013-08-14 15:36:00,
2013-08-14 17:41:00,72.3,47.9,30.07,North,355,1.0,3.5,42,0.00,BKN,,0.00,81.0,WeatherDisplay:10.37,2013-08-14 15:41:00,
2013-08-14 17:46:00,72.2,47.8,30.07,NW,311,3.1,6.0,42,0.00,BKN,,0.00,74.0,WeatherDisplay:10.37,2013-08-14 15:46:00,
2013-08-14 17:51:00,72.2,47.8,30.07,NW,307,0.6,3.5,42,0.00,BKN,,0.00,72.0,WeatherDisplay:10.37,2013-08-14 15:51:00,
2013-08-14 17:56:00,72.1,47.7,30.07,North,5,1.8,5.0,42,0.00,BKN,,0.00,74.0,WeatherDisplay:10.37,2013-08-14 15:56:00,
2013-08-14 18:01:00,72.1,48.4,30.07,NW,311,3.0,6.9,43,0.00,BKN,,0.00,69.0,WeatherDisplay:10.37,2013-08-14 16:01:00,
2013-08-14 18:06:00,72.0,48.3,30.07,NW,323,2.4,6.0,43,0.00,BKN,,0.00,58.0,WeatherDisplay:10.37,2013-08-14 16:06:00,
2013-08-14 18:11:00,71.9,48.2,30.07,NW,319,2.7,8.1,43,0.00,BKN,,0.00,49.0,WeatherDisplay:10.37,2013-08-14 16:11:00,
2013-08-14 18:16:00,71.8,48.1,30.07,NNW,337,1.0,4.6,43,0.00,BKN,,0.00,51.0,WeatherDisplay:10.37,2013-08-14 16:16:00,
2013-08-14 18:21:00,71.7,48.6,30.06,NW,317,0.9,3.5,44,0.00,BKN,,0.00,53.0,WeatherDisplay:10.37,2013-08-14 16:21:00,
2013-08-14 18:27:00,71.6,48.5,30.07,NW,317,1.9,5.0,44,0.00,BKN,,0.00,39.0,WeatherDisplay:10.37,2013-08-14 16:27:00,
2013-08-14 18:32:00,71.5,47.8,30.07,NW,309,4.4,6.0,43,0.00,BKN,,0.00,26.0,WeatherDisplay:10.37,2013-08-14 16:32:00,
2013-08-14 18:37:00,71.4,47.7,30.07,NW,324,1.5,4.6,43,0.00,BKN,,0.00,23.0,WeatherDisplay:10.37,2013-08-14 16:37:00,
2013-08-14 18:42:00,71.3,48.3,30.07,NW,315,3.1,8.1,44,0.00,BKN,,0.00,19.0,WeatherDisplay:10.37,2013-08-14 16:42:00,
2013-08-14 18:47:00,71.2,48.2,30.07,WNW,302,0.1,3.5,44,0.00,BKN,,0.00,14.0,WeatherDisplay:10.37,2013-08-14 16:47:00,
2013-08-14 18:52:00,71.0,48.6,30.07,NNW,327,2.1,5.8,45,0.00,BKN,,0.00,12.0,WeatherDisplay:10.37,2013-08-14 16:52:00,
2013-08-14 18:58:00,70.8,49.6,30.07,NNW,329,0.2,1.2,47,0.00,BKN,,0.00,11.0,WeatherDisplay:10.37,2013-08-14 16:58:00,
2013-08-14 19:04:00,70.5,51.5,30.07,NNW,329,0.1,2.3,51,0.00,BKN,,0.00,7.0,WeatherDisplay:10.37,2013-08-14 17:04:00,
2013-08-14 19:09:00,70.2,52.3,30.07,NNW,329,0.0,0.0,53,0.00,BKN,,0.00,9.0,WeatherDisplay:10.37,2013-08-14 17:09:00,
2013-08-14 19:14:00,69.8,52.9,30.08,NNW,329,0.2,1.2,55,0.00,BKN,,0.00,7.0,WeatherDisplay:10.37,2013-08-14 17:14:00,
2013-08-14 19:19:00,69.3,51.9,30.08,NNW,329,0.1,2.3,54,0.00,BKN,,0.00,7.0,WeatherDisplay:10.37,2013-08-14 17:19:00,
2013-08-14 19:25:00,68.7,51.4,30.08,NNW,329,0.0,1.0,54,0.00,BKN,,0.00,7.0,WeatherDisplay:10.37,2013-08-14 17:25:00,
2013-08-14 19:30:00,68.2,51.4,30.08,NNW,329,0.1,1.2,55,0.00,BKN,,0.00,5.0,WeatherDisplay:10.37,2013-08-14 17:30:00,
2013-08-14 19:35:00,67.8,52.0,30.08,NNW,329,0.0,0.0,57,0.00,BKN,,0.00,5.0,WeatherDisplay:10.37,2013-08-14 17:35:00,
2013-08-14 19:40:00,67.5,52.2,30.09,NNW,329,0.0,0.0,58,0.00,BKN,,0.00,5.0,WeatherDisplay:10.37,2013-08-14 17:40:00,
2013-08-14 19:46:00,67.0,53.5,30.09,NNW,329,0.0,0.0,62,0.00,BKN,,0.00,0.0,WeatherDisplay:10.37,2013-08-14 17:46:00,
2013-08-14 19:51:00,66.6,54.0,30.09,NNW,329,0.0,0.0,64,0.00,BKN,,0.00,0.0,WeatherDisplay:10.37,2013-08-14 17:51:00,
2013-08-14 19:56:00,66.2,54.1,30.09,NNW,329,0.0,0.0,65,0.00,BKN,,0.00,0.0,WeatherDisplay:10.37,2013-08-14 17:56:00,
2013-08-14 20:01:00,65.9,54.2,30.09,NNW,329,0.0,0.0,66,0.00,BKN,,0.00,0.0,WeatherDisplay:10.37,2013-08-14 18:01:00,
2013-08-14 20:06:00,65.6,54.3,30.09,NNW,329,0.0,0.0,67,0.00,BKN,,0.00,0.0,WeatherDisplay:10.37,2013-08-14 18:06:00,
2013-08-14 20:11:00,65.4,55.0,30.09,NNW,329,0.0,0.0,69,0.01,RA,,0.01,0.0,WeatherDisplay:10.37,2013-08-14 18:11:00,
2013-08-14 20:16:00,65.1,55.1,30.10,NNW,329,0.0,0.0,70,0.01,RA,,0.01,0.0,WeatherDisplay:10.37,2013-08-14 18:16:00,
2013-08-14 20:21:00,64.8,55.2,30.10,NNW,329,0.0,1.2,71,0.01,BKN,,0.01,0.0,WeatherDisplay:10.37,2013-08-14 18:21:00,
2013-08-14 20:26:00,64.4,55.2,30.10,NNW,329,0.0,0.0,72,0.01,BKN,,0.01,0.0,WeatherDisplay:10.37,2013-08-14 18:26:00,
2013-08-14 20:32:00,64.1,55.3,30.11,NNW,329,0.3,2.3,73,0.01,BKN,,0.01,0.0,WeatherDisplay:10.37,2013-08-14 18:32:00,
2013-08-14 20:38:00,63.7,55.3,30.11,NNW,329,0.2,2.3,74,0.01,BKN,,0.01,0.0,WeatherDisplay:10.37,2013-08-14 18:38:00,
2013-08-14 20:44:00,63.3,54.9,30.11,NNW,329,0.7,2.3,74,0.02,RA,,0.02,0.0,WeatherDisplay:10.37,2013-08-14 18:44:00,
2013-08-14 20:50:00,63.0,54.9,30.12,SE,138,0.8,2.3,75,0.02,RA,,0.02,0.0,WeatherDisplay:10.37,2013-08-14 18:50:00,
2013-08-14 20:56:00,62.6,54.9,30.12,South,170,0.0,3.5,76,0.02,BKN,,0.02,0.0,WeatherDisplay:10.37,2013-08-14 18:56:00,
2013-08-14 21:01:00,62.4,55.1,30.12,South,171,0.9,3.5,77,0.02,BKN,,0.02,0.0,WeatherDisplay:10.37,2013-08-14 19:01:00,
2013-08-14 21:06:00,62.2,55.3,30.12,South,171,1.3,3.5,78,0.02,BKN,,0.02,0.0,WeatherDisplay:10.37,2013-08-14 19:06:00,
2013-08-14 21:11:00,62.1,55.2,30.12,South,171,0.8,3.5,78,0.02,BKN,,0.02,0.0,WeatherDisplay:10.37,2013-08-14 19:11:00,
2013-08-14 21:17:00,61.8,55.2,30.12,SSE,147,2.1,4.0,79,0.01,BKN,,0.02,0.0,WeatherDisplay:10.37,2013-08-14 19:17:00,
2013-08-14 21:22:00,61.6,55.4,30.12,SSE,150,0.4,2.3,80,0.01,BKN,,0.02,0.0,WeatherDisplay:10.37,2013-08-14 19:22:00,
2013-08-14 21:28:00,61.6,55.7,30.12,SSE,153,0.3,3.5,81,0.01,BKN,,0.02,0.0,WeatherDisplay:10.37,2013-08-14 19:28:00,
2013-08-14 21:35:00,61.5,55.6,30.12,SSE,152,0.1,2.3,81,0.01,BKN,,0.02,0.0,WeatherDisplay:10.37,2013-08-14 19:35:00,
2013-08-14 21:40:00,61.5,55.6,30.12,SSE,152,0.0,0.0,81,0.01,BKN,,0.02,0.0,WeatherDisplay:10.37,2013-08-14 19:40:00,
2013-08-14 21:46:00,61.5,55.6,30.12,SSE,152,1.1,2.3,81,0.00,BKN,,0.02,0.0,WeatherDisplay:10.37,2013-08-14 19:46:00,
2013-08-14 21:52:00,61.4,55.9,30.12,SSE,152,0.9,3.5,82,0.01,RA,,0.02,0.0,WeatherDisplay:10.37,2013-08-14 19:52:00,
2013-08-14 21:57:00,61.4,55.9,30.12,SSE,163,0.6,2.3,82,0.01,RA,,0.02,0.0,WeatherDisplay:10.37,2013-08-14 19:57:00,
2013-08-14 22:02:00,61.2,56.0,30.12,South,190,0.6,2.3,83,0.01,BKN,,0.02,0.0,WeatherDisplay:10.37,2013-08-14 20:02:00,
2013-08-14 22:07:00,61.1,55.9,30.12,SSE,167,3.3,6.0,83,0.02,RA,,0.03,0.0,WeatherDisplay:10.37,2013-08-14 20:07:00,
2013-08-14 22:12:00,61.0,56.1,30.12,SSE,164,1.9,4.0,84,0.02,RA,,0.03,0.0,WeatherDisplay:10.37,2013-08-14 20:12:00,
2013-08-14 22:17:00,60.8,55.9,30.12,SSE,164,1.0,3.5,84,0.02,BKN,,0.03,0.0,WeatherDisplay:10.37,2013-08-14 20:17:00,
2013-08-14 22:22:00,60.7,55.8,30.12,SSE,164,0.1,3.5,84,0.02,BKN,,0.03,0.0,WeatherDisplay:10.37,2013-08-14 20:22:00,
2013-08-14 22:27:00,60.5,56.0,30.12,SSE,164,0.2,3.5,85,0.02,BKN,,0.03,0.0,WeatherDisplay:10.37,2013-08-14 20:27:00,
2013-08-14 22:33:00,60.4,55.9,30.12,SSE,164,0.3,2.3,85,0.02,BKN,,0.03,0.0,WeatherDisplay:10.37,2013-08-14 20:33:00,
2013-08-14 22:38:00,60.3,55.8,30.12,SSE,164,0.1,1.2,85,0.02,BKN,,0.03,0.0,WeatherDisplay:10.37,2013-08-14 20:38:00,
2013-08-14 22:43:00,60.2,56.0,30.12,SSE,164,0.1,1.2,86,0.02,BKN,,0.03,0.0,WeatherDisplay:10.37,2013-08-14 20:43:00,
2013-08-14 22:48:00,60.1,55.9,30.12,SSE,164,0.2,2.3,86,0.02,BKN,,0.03,0.0,WeatherDisplay:10.37,2013-08-14 20:48:00,
2013-08-14 22:53:00,60.0,55.8,30.13,SSE,165,0.0,0.0,86,0.01,BKN,,0.03,0.0,WeatherDisplay:10.37,2013-08-14 20:53:00,
2013-08-14 22:58:00,59.9,55.7,30.13,SSE,165,0.3,1.2,86,0.01,BKN,,0.03,0.0,WeatherDisplay:10.37,2013-08-14 20:58:00,
2013-08-14 23:03:00,59.9,56.0,30.13,SSE,164,0.0,1.2,87,0.01,BKN,,0.03,0.0,WeatherDisplay:10.37,2013-08-14 21:03:00,
2013-08-14 23:09:00,59.8,55.9,30.13,SSE,164,0.0,0.0,87,0.00,BKN,,0.03,0.0,WeatherDisplay:10.37,2013-08-14 21:09:00,
2013-08-14 23:14:00,59.9,56.0,30.13,SSE,164,0.1,1.2,87,0.00,BKN,,0.03,0.0,WeatherDisplay:10.37,2013-08-14 21:14:00,
2013-08-14 23:19:00,59.9,56.0,30.12,SSE,165,0.8,2.3,87,0.00,BKN,,0.03,0.0,WeatherDisplay:10.37,2013-08-14 21:19:00,
2013-08-14 23:24:00,59.9,56.3,30.12,SSE,164,0.1,2.3,88,0.00,BKN,,0.03,0.0,WeatherDisplay:10.37,2013-08-14 21:24:00,
2013-08-14 23:29:00,59.9,56.3,30.13,SSE,164,0.0,0.0,88,0.00,BKN,,0.03,0.0,WeatherDisplay:10.37,2013-08-14 21:29:00,
2013-08-14 23:34:00,59.9,56.3,30.13,SSE,164,0.0,1.2,88,0.00,BKN,,0.03,0.0,WeatherDisplay:10.37,2013-08-14 21:34:00,
2013-08-14 23:39:00,59.9,56.3,30.13,SSE,164,0.0,0.0,88,0.00,BKN,,0.03,0.0,WeatherDisplay:10.37,2013-08-14 21:39:00,
2013-08-14 23:45:00,59.9,56.3,30.13,SSE,164,0.0,0.0,88,0.00,BKN,,0.03,0.0,WeatherDisplay:10.37,2013-08-14 21:45:00,
2013-08-14 23:50:00,59.9,56.3,30.13,SSE,164,0.0,0.0,88,0.00,BKN,,0.03,0.0,WeatherDisplay:10.37,2013-08-14 21:50:00,
2013-08-14 23:56:00,59.9,56.3,30.13,SSE,164,0.0,0.0,88,0.00,BKN,,0.03,0.0,WeatherDisplay:10.37,2013-08-14 21:56:00,